Wind_Speed
89 86 81 79 76 70 64 61 60 61 61 62 64 63 57 52 45 37 28 16 12 10 15 19 24 34 43 48 50 50 47 44 42 40 36 32 29 27 25 23 19 15 13 19 19 15 16 14 15 17 14 12 21 27
84 80 75 74 72 65 61 57 58 59 58 59 58 56 56 51 45 38 29 17 12 12 14 18 22 30 37 46 50 51 50 48 45 42 38 37 34 30 27 23 19 13 17 24 19 19 11 12 16 15 14 21 22 19
79 74 71 69 66 62 58 54 56 58 55 57 56 52 51 49 44 38 28 18 12 14 14 16 18 24 29 38 46 51 53 51 47 45 41 38 37 31 28 26 22 17 19 24 20 13 16 14 14 16 16 19 16 20
73 69 67 65 62 59 56 52 55 58 55 54 52 51 47 46 42 35 26 18 13 13 15 16 17 20 24 29 35 41 50 52 50 47 43 41 38 34 31 29 24 21 22 24 22 16 17 12 15 17 22 14 13 18
68 64 64 61 59 57 53 50 53 57 54 53 49 47 44 42 38 29 21 15 13 15 17 17 17 19 21 23 27 31 35 42 52 49 45 43 40 35 32 29 26 24 28 26 22 18 15 14 17 21 17 16 8 11
63 62 62 59 55 54 51 47 52 56 55 52 48 45 40 37 30 23 16 12 13 15 17 16 19 22 22 23 26 27 28 31 37 48 48 45 42 37 34 34 30 27 31 29 25 22 18 14 17 24 15 15 13 7
58 59 60 55 52 50 49 45 51 55 54 49 46 42 36 31 23 14 9 8 11 16 19 21 23 24 24 25 25 25 25 28 32 40 44 42 40 39 39 35 28 32 34 31 28 23 17 18 20 19 17 16 15 12
57 59 56 54 50 47 45 43 49 51 52 46 42 37 30 25 15 8 4 7 10 17 21 24 25 26 26 27 26 26 26 28 29 31 33 32 33 37 38 28 34 37 32 32 27 22 18 21 24 17 16 14 16 11
56 59 52 52 48 45 42 42 45 49 50 45 39 32 26 21 14 5 3 6 10 18 23 25 26 27 28 26 25 24 24 23 23 24 27 31 34 38 28 33 37 33 31 30 24 24 25 25 20 18 13 16 13 9
56 55 49 49 47 43 41 41 42 46 48 42 38 30 24 21 14 5 2 4 11 20 26 27 30 30 28 26 23 22 22 22 21 23 26 31 33 32 36 36 35 28 29 31 30 29 28 21 21 19 16 16 15 12
53 54 47 46 46 41 40 40 38 41 45 37 31 29 22 20 14 8 3 5 11 20 26 30 33 31 28 26 24 22 21 19 16 20 23 23 25 32 32 30 29 31 34 32 32 32 24 24 23 21 18 17 16 14
53 53 45 44 45 41 39 38 35 36 41 36 28 25 21 18 14 9 5 8 14 22 28 34 35 33 31 29 27 25 23 20 19 24 27 27 28 29 31 31 33 35 35 34 33 32 28 27 26 25 23 20 18 16
53 52 46 43 43 40 40 36 32 33 35 32 26 24 22 18 14 10 7 12 17 25 28 34 37 35 34 33 30 29 27 24 24 25 30 31 32 32 31 33 37 36 34 34 32 32 30 28 29 29 27 26 24 24
51 51 48 44 42 41 39 37 31 31 31 29 27 24 21 19 16 11 7 8 17 22 29 32 39 40 38 36 34 34 32 30 29 28 29 30 31 32 32 30 31 31 31 32 32 32 31 33 31 29 30 29 27 27
51 51 48 45 42 40 39 38 32 30 28 28 25 25 24 17 19 14 10 8 13 18 26 34 38 43 43 40 39 39 38 36 36 34 33 33 33 34 34 33 33 34 33 33 33 32 32 33 34 33 32 31 31 31
53 52 48 45 42 41 40 38 34 31 28 29 25 28 23 23 17 19 14 11 10 18 22 26 32 39 43 45 45 43 44 45 42 39 38 38 37 37 38 39 38 37 36 36 37 36 36 35 35 35 35 34 34 34
54 52 48 44 42 40 39 38 36 30 33 31 29 29 25 24 24 21 19 17 16 14 18 25 32 37 38 42 47 51 52 50 48 46 45 44 43 43 44 44 45 44 43 43 42 41 39 38 40 41 40 38 37 37
54 52 47 44 44 40 38 38 35 35 37 34 31 30 30 26 24 27 24 20 20 20 20 20 25 32 43 47 47 54 58 58 56 54 52 51 49 49 49 49 51 51 50 49 49 48 47 47 46 44 43 43 43 42
53 49 46 45 44 40 39 38 36 36 37 37 34 32 31 31 27 28 29 27 24 24 25 27 25 26 32 40 52 60 63 64 65 64 62 60 58 56 55 54 54 55 56 56 55 55 54 54 52 50 49 49 49 48
53 49 46 45 45 42 42 43 40 39 39 38 36 34 32 33 33 32 30 31 32 29 27 29 30 32 30 32 38 46 55 63 69 69 68 70 68 66 64 63 61 60 59 59 58 57 57 57 55 55 54 54 54 53
51 48 46 45 45 44 44 44 43 40 40 39 37 35 33 34 37 36 35 33 32 33 34 32 32 32 36 37 36 37 41 48 54 61 68 74 74 75 74 71 70 69 67 66 66 65 63 62 60 61 61 61 61 60
50 49 46 47 47 44 42 44 42 41 40 40 38 35 35 38 40 39 38 36 34 33 37 37 36 35 34 36 41 42 42 41 43 48 52 57 63 72 81 79 78 78 77 76 76 74 73 72 69 68 68 66 65 65
48 46 45 47 44 42 43 43 43 41 39 39 38 36 37 39 41 41 40 40 37 38 38 39 40 40 38 37 37 39 44 47 47 47 46 46 49 52 55 65 76 83 85 84 84 84 82 80 78 76 73 72 71 71
47 45 46 44 42 42 44 44 43 41 38 39 39 38 38 40 42 42 42 41 41 41 41 41 41 43 43 42 40 39 40 42 46 50 50 50 49 48 45 47 51 58 68 75 79 83 85 86 86 84 83 80 77 77
46 44 42 43 44 45 44 44 42 40 40 38 38 38 39 40 42 43 45 43 44 42 42 42 42 43 44 45 43 42 41 42 44 45 44 45 50 53 51 49 47 47 49 52 54 58 62 66 71 76 80 83 84 84
43 41 42 44 45 44 43 43 42 41 39 38 38 40 41 41 43 45 46 46 45 42 43 44 42 44 45 45 44 44 43 43 45 46 45 45 47 49 51 51 51 52 50 50 51 50 50 50 53 56 60 65 70 75
40 43 45 46 45 43 42 41 39 39 39 39 41 40 41 42 45 46 47 49 47 45 45 44 43 44 45 44 44 44 44 44 46 49 50 50 48 48 50 52 53 54 53 53 53 53 53 52 54 54 56 58 62 64
43 46 45 43 41 39 38 38 39 40 40 41 41 42 42 45 46 45 47 47 46 45 43 42 43 45 45 45 44 45 44 45 49 51 52 51 48 48 49 52 54 54 55 54 54 54 55 56 58 60 60 60 62 63
44 42 39 38 36 37 39 39 41 42 41 41 43 43 43 45 46 46 46 46 45 44 42 41 43 45 45 45 44 45 47 49 50 50 50 52 51 48 49 49 49 49 50 51 53 53 57 59 61 61 60 61 62 63
41 38 37 37 38 39 41 42 42 41 41 40 40 43 45 46 46 44 45 44 44 41 40 43 43 45 44 44 47 47 44 48 54 54 54 52 48 46 46 48 48 48 48 49 51 54 55 55 57 59 61 59 60 62
36 35 37 39 41 41 40 40 40 40 39 41 43 44 44 46 45 44 41 40 40 40 42 42 43 43 43 43 44 48 51 49 53 51 47 46 46 46 46 46 45 45 44 45 48 49 50 51 55 59 58 57 59 60
36 39 39 39 39 40 41 41 41 41 41 42 43 44 45 46 44 41 35 35 38 41 41 41 40 40 41 42 46 50 53 51 48 46 45 44 42 40 40 39 39 39 39 40 45 47 49 51 55 55 54 55 57 59
37 37 39 40 40 40 40 40 40 41 41 42 42 43 44 43 40 36 33 36 38 38 39 39 38 38 40 45 49 48 48 47 45 43 39 35 33 33 33 33 34 35 36 38 41 44 46 48 50 50 51 53 53 52
Wind_Direction
305 307 310 312 315 318 323 324 323 327 330 330 330 330 333 331 330 329 328 319 292 258 242 234 226 214 211 207 203 202 202 200 200 202 205 209 204 206 214 223 234 248 247 211 210 207 234 239 250 274 305 311 322 314
302 305 308 309 312 318 318 322 321 325 327 327 329 328 327 326 325 322 317 307 275 249 238 231 224 220 217 217 211 208 207 205 204 204 206 209 208 211 217 225 234 243 232 217 224 233 249 270 282 285 309 309 313 296
300 303 305 307 311 316 317 322 320 321 325 325 327 327 324 321 318 315 309 296 268 250 223 217 217 218 216 218 219 216 212 209 207 205 209 210 212 214 221 230 235 248 236 217 229 227 255 273 289 308 302 310 307 275
298 302 303 306 310 313 317 322 319 318 324 325 327 325 321 317 312 307 301 285 260 247 219 211 212 213 213 215 216 215 219 216 211 210 211 214 217 218 222 230 237 241 232 220 226 232 250 267 292 317 317 306 299 288
296 299 300 305 310 312 315 320 316 317 323 324 329 323 318 315 310 301 293 274 242 230 217 208 205 209 206 206 208 207 212 217 216 213 214 216 221 224 227 235 239 235 223 222 230 228 234 265 286 301 311 317 295 292
295 297 298 304 308 309 312 317 316 318 321 324 330 322 319 316 308 299 285 260 230 223 205 200 198 200 197 197 198 197 202 208 211 216 218 221 225 230 235 237 236 219 217 220 221 232 247 256 288 300 300 302 295 273
291 292 295 301 304 307 311 317 316 317 321 326 330 322 323 319 309 302 291 255 222 208 194 193 193 188 188 190 188 187 190 197 205 213 219 225 227 230 233 228 217 217 214 210 224 231 238 258 288 288 298 289 291 279
287 288 295 298 303 305 310 315 314 318 321 326 329 323 328 324 316 306 264 222 214 196 189 190 184 178 180 177 176 178 183 192 200 207 213 215 215 215 221 215 208 214 209 211 220 225 255 279 266 281 280 282 283 280
283 286 293 295 299 302 309 313 316 316 320 325 329 327 338 337 336 318 269 222 209 192 188 185 174 170 166 171 174 180 189 196 202 205 210 209 212 217 212 206 212 212 210 213 231 237 262 255 261 277 268 267 271 267
280 284 289 292 294 301 305 312 314 316 317 328 329 331 347 349 346 319 253 196 195 190 187 183 171 174 178 183 187 195 202 206 212 215 211 214 217 212 204 206 214 216 218 229 241 248 252 252 262 256 254 252 252 247
277 281 286 290 293 301 304 309 311 315 315 328 330 331 345 349 356 325 237 185 194 198 193 183 180 183 188 195 198 204 204 206 204 199 196 191 193 197 202 203 210 219 227 234 242 249 259 257 255 249 245 245 248 251
275 279 285 287 290 295 299 303 308 313 311 323 329 331 337 341 345 349 263 195 194 201 199 191 189 190 198 204 207 207 202 201 203 199 195 196 197 201 203 208 219 226 233 243 248 250 254 251 243 246 242 245 247 251
272 276 281 283 287 290 293 296 308 311 310 316 327 329 329 331 330 335 314 235 209 208 205 200 199 201 204 210 213 211 209 204 207 207 209 212 212 211 211 217 222 229 236 241 244 245 246 233 233 240 243 244 249 253
266 272 277 279 282 286 288 293 300 305 305 310 324 319 320 315 313 313 309 272 239 216 210 210 207 209 210 214 219 221 219 218 213 212 213 215 219 222 223 223 222 227 235 242 239 239 239 236 236 247 251 256 264 267
263 266 270 273 278 283 285 286 293 297 300 304 317 313 309 306 299 297 285 263 240 243 221 215 214 214 216 220 223 226 228 228 226 222 221 220 224 225 226 227 227 229 235 236 237 241 242 243 249 251 253 259 265 270
260 263 266 270 274 277 280 281 284 291 295 299 307 306 300 296 290 281 276 264 257 240 230 222 222 223 221 222 225 228 232 234 235 233 231 228 227 230 231 228 227 227 230 233 237 241 242 244 249 254 257 260 266 269
258 262 265 266 268 270 273 277 283 285 290 291 296 297 292 287 287 278 268 268 260 257 243 239 220 218 220 226 231 230 233 234 237 238 238 235 232 231 230 231 230 230 231 233 236 242 246 249 253 257 260 261 263 268
254 259 262 263 262 264 270 274 279 280 286 286 289 287 285 282 276 277 270 260 260 257 257 251 239 238 226 215 226 231 233 234 235 236 237 238 238 237 235 233 234 235 235 237 241 244 247 249 251 255 257 260 264 269
255 256 257 261 262 263 266 271 274 277 281 281 281 279 278 276 272 268 269 264 256 253 253 253 256 249 242 237 237 237 233 231 232 233 235 237 238 239 241 240 239 239 240 242 244 245 247 251 254 256 257 261 264 267
255 256 255 257 260 261 263 264 264 268 273 274 274 273 271 269 269 268 263 263 263 258 250 252 251 255 256 249 245 246 246 244 241 240 237 232 237 240 240 242 243 244 244 244 244 246 248 250 253 255 257 261 265 267
251 253 254 256 256 255 257 261 262 264 266 268 267 267 266 263 264 266 267 264 264 262 263 258 251 249 248 255 257 256 253 250 250 248 248 243 242 240 237 239 242 244 245 246 247 249 250 251 253 255 258 261 264 267
246 248 250 251 251 254 256 258 260 261 263 263 263 264 262 259 261 264 266 266 266 266 262 262 261 257 252 249 250 255 259 260 259 256 252 251 249 244 241 245 246 243 242 245 247 248 250 252 255 257 259 261 263 265
244 246 247 250 252 253 256 257 259 259 260 260 261 261 259 257 260 263 265 267 268 268 266 264 264 264 260 256 255 254 253 255 257 260 261 259 256 254 249 247 248 249 248 249 250 250 250 251 251 252 253 256 259 262
242 243 245 249 251 252 253 255 256 258 260 258 259 260 258 256 258 262 264 267 268 267 269 268 264 265 266 264 262 261 259 258 258 257 257 259 260 260 259 255 250 250 251 253 253 252 253 255 255 256 256 254 256 259
240 243 246 247 249 249 250 252 253 255 257 258 258 257 256 257 259 262 266 269 268 269 271 271 269 267 266 266 268 269 267 266 266 265 263 263 260 258 258 259 256 251 252 255 256 257 258 256 256 256 258 260 260 259
241 242 243 245 246 247 248 250 252 253 256 257 255 253 254 257 259 261 267 269 271 273 274 273 271 269 268 269 271 271 272 273 273 272 269 265 263 260 258 254 249 249 251 252 255 257 258 258 258 258 259 258 258 260
241 242 242 244 245 247 248 251 253 255 255 253 250 250 253 257 261 265 267 270 274 276 275 276 275 273 273 272 274 276 277 276 274 273 272 271 267 263 260 257 253 251 249 249 250 254 257 260 262 263 263 263 261 261
238 239 241 242 244 247 250 251 252 252 251 248 249 251 255 258 262 265 268 273 275 276 278 278 276 276 276 277 279 279 278 276 274 273 273 271 268 266 264 262 260 258 257 255 254 254 256 257 259 261 262 261 262 261
237 239 241 240 241 245 247 249 250 250 249 249 251 254 257 259 261 265 270 273 276 278 280 279 277 279 281 283 283 282 282 279 275 274 276 279 281 279 273 268 264 260 256 253 252 251 252 253 254 255 256 256 258 260
235 234 234 236 239 242 245 247 249 249 249 251 255 256 258 262 266 271 272 276 278 280 279 278 281 283 286 286 286 284 281 282 284 286 286 285 282 278 273 269 265 261 256 253 250 249 248 248 248 250 250 251 253 255
233 233 235 237 239 242 246 249 249 249 250 251 253 258 262 266 269 272 275 278 280 279 278 281 286 286 288 288 285 285 286 287 287 288 287 285 281 278 273 269 264 260 255 249 246 244 243 240 239 241 243 244 246 249
229 231 235 238 241 242 243 245 247 250 252 255 258 262 266 269 274 277 279 280 277 278 284 286 288 290 289 288 289 291 293 292 291 290 288 285 281 276 270 266 261 256 251 244 241 238 236 234 235 238 239 240 243 245
231 233 235 237 240 241 243 246 248 251 254 258 262 266 269 273 276 284 284 278 278 283 286 289 291 290 289 290 292 293 292 293 293 291 289 283 277 272 266 261 256 251 245 240 236 235 234 234 235 236 237 241 244 246
Height
10482 10475 10468 10459 10452 10444 10435 10427 10414 10402 10392 10378 10367 10355 10345 10341 10334 10326 10321 10318 10315 10314 10314 10317 10320 10323 10326 10331 10337 10345 10353 10360 10368 10376 10383 10390 10396 10402 10407 10412 10415 10418 10419 10421 10424 10427 10429 10430 10430 10429 10429 10426 10424 10419
10467 10462 10456 10447 10440 10434 10425 10417 10407 10396 10386 10373 10361 10352 10340 10332 10328 10321 10316 10313 10311 10310 10311 10313 10316 10320 10324 10328 10333 10339 10348 10356 10364 10373 10380 10386 10393 10399 10404 10408 10411 10414 10416 10418 10421 10424 10426 10427 10427 10427 10427 10423 10420 10417
10453 10449 10443 10436 10429 10422 10415 10408 10397 10387 10380 10368 10355 10345 10338 10327 10321 10315 10310 10307 10305 10306 10307 10309 10312 10316 10320 10325 10330 10337 10344 10352 10361 10369 10377 10383 10388 10395 10400 10404 10408 10411 10413 10415 10418 10421 10423 10424 10424 10424 10423 10420 10417 10415
10439 10435 10428 10423 10418 10412 10404 10398 10387 10377 10372 10361 10348 10338 10331 10322 10314 10308 10304 10299 10299 10301 10302 10304 10307 10311 10315 10320 10325 10331 10339 10348 10358 10366 10373 10379 10384 10391 10395 10398 10403 10406 10409 10412 10415 10418 10420 10420 10421 10419 10418 10417 10415 10412
10425 10421 10414 10411 10407 10400 10394 10387 10377 10367 10363 10353 10340 10332 10322 10315 10307 10300 10297 10295 10294 10296 10298 10300 10305 10309 10313 10317 10322 10328 10335 10343 10353 10361 10368 10374 10380 10386 10391 10395 10398 10401 10405 10408 10411 10414 10416 10417 10417 10416 10415 10413 10412 10410
10411 10406 10401 10400 10396 10389 10383 10376 10368 10358 10354 10344 10332 10324 10315 10307 10300 10293 10291 10289 10289 10292 10295 10298 10302 10306 10311 10316 10321 10326 10332 10340 10348 10357 10364 10369 10375 10381 10385 10386 10391 10396 10400 10404 10407 10410 10411 10413 10414 10412 10411 10410 10409 10408
10398 10392 10389 10389 10385 10378 10372 10367 10358 10348 10345 10336 10327 10318 10309 10301 10294 10289 10286 10286 10287 10290 10292 10296 10300 10305 10311 10316 10322 10326 10331 10337 10344 10351 10358 10364 10371 10375 10376 10379 10386 10389 10393 10399 10403 10406 10408 10409 10410 10408 10407 10407 10407 10406
10383 10379 10379 10375 10373 10368 10363 10356 10348 10340 10335 10328 10322 10314 10304 10297 10291 10286 10283 10284 10286 10288 10291 10296 10300 10305 10310 10315 10320 10325 10330 10335 10340 10346 10352 10358 10363 10366 10368 10378 10380 10382 10389 10394 10398 10401 10403 10405 10404 10404 10404 10404 10404 10403
10369 10365 10367 10364 10362 10357 10353 10347 10340 10332 10326 10320 10316 10308 10300 10294 10289 10284 10283 10284 10286 10289 10293 10297 10302 10308 10313 10317 10321 10326 10330 10334 10339 10343 10348 10353 10356 10357 10368 10370 10374 10379 10385 10391 10395 10397 10398 10398 10400 10400 10401 10401 10401 10401
10354 10353 10356 10352 10349 10347 10343 10339 10333 10327 10320 10314 10309 10304 10297 10292 10288 10285 10284 10285 10287 10290 10292 10297 10302 10307 10312 10316 10321 10325 10329 10333 10337 10338 10341 10346 10351 10358 10362 10365 10370 10377 10382 10386 10389 10391 10392 10395 10395 10396 10397 10397 10398 10398
10340 10340 10343 10341 10337 10337 10334 10331 10325 10321 10315 10312 10307 10300 10296 10293 10288 10285 10284 10285 10288 10291 10294 10298 10302 10307 10311 10316 10320 10323 10326 10330 10332 10335 10338 10343 10349 10355 10360 10364 10368 10372 10376 10380 10382 10385 10388 10390 10390 10391 10392 10393 10394 10395
10325 10326 10330 10328 10326 10326 10323 10322 10317 10315 10309 10303 10303 10298 10294 10292 10288 10285 10285 10285 10287 10290 10293 10297 10300 10305 10310 10314 10317 10321 10324 10326 10330 10334 10338 10343 10347 10352 10356 10360 10364 10367 10370 10374 10377 10380 10382 10383 10384 10386 10388 10388 10389 10390
10311 10312 10316 10315 10315 10314 10312 10312 10310 10308 10304 10297 10296 10294 10290 10288 10287 10285 10284 10285 10284 10287 10292 10295 10300 10304 10308 10311 10315 10318 10321 10324 10326 10330 10334 10338 10342 10347 10351 10355 10358 10361 10364 10367 10370 10373 10375 10376 10377 10379 10381 10383 10383 10384
10298 10299 10301 10302 10303 10302 10301 10301 10301 10300 10296 10293 10289 10288 10288 10286 10284 10282 10281 10282 10284 10285 10288 10293 10297 10301 10305 10308 10312 10316 10318 10321 10324 10327 10330 10333 10336 10340 10344 10348 10352 10356 10358 10361 10364 10367 10369 10370 10372 10374 10376 10377 10377 10378
10283 10286 10287 10290 10290 10290 10291 10290 10290 10290 10288 10285 10283 10282 10281 10282 10280 10279 10278 10278 10279 10280 10284 10287 10291 10295 10301 10305 10308 10311 10314 10317 10319 10323 10326 10329 10332 10335 10339 10342 10345 10349 10352 10354 10358 10360 10363 10365 10367 10368 10369 10370 10371 10371
10266 10270 10274 10276 10277 10279 10280 10279 10279 10279 10279 10276 10274 10275 10275 10274 10275 10274 10273 10274 10274 10275 10276 10280 10285 10290 10294 10299 10302 10305 10307 10309 10313 10317 10321 10324 10326 10329 10332 10335 10338 10341 10344 10347 10350 10352 10354 10357 10358 10359 10360 10361 10362 10362
10251 10254 10260 10263 10264 10266 10266 10266 10266 10268 10267 10268 10265 10266 10265 10266 10266 10267 10267 10267 10268 10269 10270 10272 10273 10276 10283 10289 10293 10296 10296 10300 10305 10310 10313 10316 10319 10321 10323 10327 10330 10332 10335 10338 10341 10343 10345 10346 10347 10349 10350 10351 10352 10352
10235 10240 10244 10248 10249 10252 10253 10254 10255 10256 10257 10258 10257 10258 10257 10257 10257 10258 10259 10260 10261 10262 10263 10263 10264 10268 10270 10271 10273 10275 10279 10287 10292 10298 10302 10305 10309 10311 10314 10316 10319 10322 10325 10327 10330 10332 10334 10335 10337 10339 10340 10341 10342 10342
10220 10226 10230 10233 10235 10238 10240 10240 10243 10244 10246 10247 10247 10248 10248 10247 10249 10250 10249 10250 10251 10253 10254 10255 10256 10256 10259 10260 10262 10263 10263 10267 10273 10280 10286 10290 10294 10298 10301 10304 10306 10309 10312 10315 10317 10320 10322 10323 10325 10327 10328 10329 10330 10331
10203 10210 10213 10216 10219 10223 10225 10227 10229 10231 10233 10235 10235 10237 10237 10237 10238 10239 10240 10241 10241 10242 10243 10244 10245 10246 10247 10249 10249 10250 10253 10256 10259 10261 10265 10271 10275 10281 10285 10288 10290 10293 10296 10299 10302 10304 10307 10309 10311 10313 10315 10315 10317 10317
10187 10192 10196 10201 10204 10209 10211 10213 10215 10218 10220 10221 10223 10225 10226 10226 10226 10227 10229 10231 10231 10232 10232 10233 10233 10235 10236 10237 10238 10238 10239 10240 10242 10245 10247 10254 10258 10259 10262 10267 10271 10275 10279 10281 10284 10287 10290 10294 10297 10298 10300 10301 10301 10302
10172 10177 10183 10186 10190 10194 10197 10198 10200 10204 10207 10208 10210 10213 10214 10214 10214 10216 10216 10217 10219 10220 10219 10220 10221 10221 10223 10224 10225 10226 10227 10228 10228 10228 10230 10232 10236 10242 10245 10247 10252 10253 10256 10260 10263 10267 10271 10274 10279 10281 10282 10283 10285 10285
10157 10163 10168 10171 10177 10181 10184 10185 10188 10191 10194 10195 10196 10200 10202 10202 10203 10204 10204 10205 10207 10207 10206 10207 10207 10208 10209 10210 10211 10212 10212 10213 10214 10215 10216 10218 10218 10221 10226 10229 10233 10235 10236 10238 10242 10245 10248 10253 10257 10259 10263 10264 10266 10267
10145 10150 10155 10160 10165 10168 10168 10172 10175 10178 10181 10182 10184 10187 10189 10190 10191 10191 10191 10192 10194 10193 10193 10194 10194 10194 10194 10195 10196 10197 10198 10198 10198 10199 10201 10203 10205 10206 10208 10210 10213 10213 10214 10216 10220 10223 10229 10234 10236 10238 10242 10245 10246 10247
10132 10139 10145 10148 10150 10152 10155 10158 10162 10165 10167 10169 10172 10175 10175 10177 10178 10178 10177 10179 10179 10180 10180 10179 10179 10179 10180 10181 10181 10181 10182 10182 10182 10182 10185 10187 10188 10188 10191 10194 10196 10197 10198 10198 10200 10204 10207 10212 10214 10217 10220 10225 10227 10226
10122 10129 10132 10133 10135 10139 10142 10145 10148 10151 10154 10158 10159 10161 10162 10164 10165 10166 10164 10165 10165 10166 10166 10164 10164 10164 10165 10166 10166 10166 10166 10166 10165 10164 10166 10168 10169 10169 10170 10173 10176 10177 10181 10183 10185 10187 10190 10193 10195 10197 10200 10202 10204 10205
10112 10114 10117 10118 10122 10127 10130 10133 10137 10139 10143 10146 10146 10149 10151 10151 10152 10153 10152 10150 10151 10151 10150 10149 10149 10149 10150 10151 10150 10150 10149 10148 10147 10146 10145 10146 10149 10151 10151 10151 10153 10156 10162 10165 10167 10170 10172 10175 10177 10179 10181 10183 10185 10185
10097 10098 10102 10108 10111 10114 10119 10122 10125 10127 10131 10132 10134 10136 10139 10138 10140 10140 10138 10138 10137 10136 10136 10136 10135 10133 10134 10134 10134 10132 10131 10131 10128 10126 10125 10125 10128 10130 10132 10131 10131 10135 10137 10140 10144 10147 10150 10154 10157 10159 10162 10164 10165 10168
10082 10087 10093 10097 10101 10104 10107 10110 10113 10116 10119 10121 10121 10124 10125 10125 10126 10126 10126 10124 10123 10122 10123 10122 10120 10119 10119 10118 10117 10115 10114 10111 10108 10107 10107 10104 10105 10107 10106 10106 10107 10109 10112 10115 10119 10123 10127 10130 10135 10138 10143 10146 10148 10150
10072 10078 10082 10087 10090 10093 10095 10098 10102 10105 10107 10109 10110 10111 10111 10112 10113 10114 10112 10112 10110 10110 10110 10108 10107 10105 10104 10102 10098 10097 10098 10093 10087 10087 10085 10084 10083 10083 10084 10083 10084 10086 10089 10092 10096 10098 10103 10110 10115 10119 10123 10129 10133 10135
10064 10070 10074 10076 10078 10081 10085 10088 10090 10093 10096 10097 10098 10098 10099 10098 10099 10100 10101 10100 10098 10097 10096 10096 10094 10092 10090 10087 10083 10078 10075 10077 10071 10068 10067 10065 10064 10062 10062 10062 10063 10065 10068 10071 10074 10079 10084 10091 10095 10099 10105 10111 10116 10118
10057 10059 10062 10066 10069 10072 10073 10076 10080 10082 10084 10085 10086 10087 10086 10086 10086 10088 10090 10089 10086 10084 10083 10082 10081 10079 10075 10071 10068 10064 10059 10055 10053 10052 10049 10047 10045 10043 10043 10043 10044 10046 10050 10054 10055 10060 10066 10072 10077 10083 10089 10094 10098 10101
10045 10049 10052 10054 10057 10061 10064 10067 10069 10071 10073 10073 10075 10075 10074 10074 10075 10077 10078 10076 10074 10074 10072 10070 10067 10065 10062 10057 10053 10049 10045 10041 10038 10035 10033 10031 10029 10027 10027 10028 10029 10031 10034 10038 10042 10046 10051 10056 10062 10069 10074 10079 10083 10089